Weather History for Muscle Shoals, AL

Change the Weather History Date:

Thursday, February 27, 2014

  Actual Average Record
Temperature  
Mean Temperature 34 °F 48 °F  
Max Temperature 49 °F 59 °F 82 °F (1917)
Min Temperature 18 °F 38 °F 10 °F (1934)
Degree Days  
Heating Degree Days 31 17  
Month to date heating degree days 575 539  
Since 1 July heating degree days 2748 2519  
Cooling Degree Days 0 0  
Month to date cooling degree days 0 0  
Year to date cooling degree days 0 0  
Moisture  
Dew Point 13 °F    
Average Humidity 45    
Maximum Humidity 67    
Minimum Humidity 23    
Precipitation  
Precipitation 0.00 in 0.17 in 3.30 in (1913)
Month to date precipitation 3.90 4.49  
Year to date precipitation 5.60 9.10  
Snow  
Snow 0.00 in - - ()
Month to date snowfall 1.4  
Since 1 July snowfall 1.4  
Snow Depth 0.00 in    
Sea Level Pressure  
Sea Level Pressure 30.07 in    
Wind  
Wind Speed 4 mph (WNW)    
Max Wind Speed 13 mph    
Max Gust Speed 18 mph    
Visibility 10 miles    
Events      
T = Trace of Precipitation, MM = Missing Value Source: NWS Daily Summary

Daily Weather History Graph

Daily Weather History Graph

Search for Another Location

Airport:

Trip Planner

Search our weather history database for the weather conditions in past years. The results will help you decide how hot, cold, wet, or windy it might be!

Date:

Astronomy

Feb. 27, 2014 Rise Set
Actual Time 6:22 AM CST 5:44 PM CST
Civil Twilight 5:56 AM CST 6:09 PM CST
Nautical Twilight 5:27 AM CST 6:39 PM CST
Astronomical Twilight 4:58 AM CST 7:08 PM CST
Moon 4:51 AM CST (2/27) 4:11 PM CST (2/27)
Length of Visible Light 12h 13m
Length of Day
11h 22m
Waning Crescent, 4% of the Moon is Illuminated
Feb 27
Waning Crescent
Mar 1
New
Mar 8
First Quarter
Mar 16
Full
Mar 23
Last Quarter

Hourly Weather History & Observations

Time (CST) Temp. Windchill Dew Point Humidity Pressure Visibility Wind Dir Wind Speed Gust Speed Precip Events Conditions
12:53 AM 24.1 °F 19.7 °F 10.0 °F 55% 30.09 in 10.0 mi NW 3.5 mph - N/A   Clear
1:53 AM 23.0 °F - 10.0 °F 58% 30.07 in 10.0 mi Calm Calm - N/A   Clear
2:53 AM 23.0 °F 18.4 °F 10.0 °F 58% 30.07 in 10.0 mi WSW 3.5 mph - N/A   Clear
3:53 AM 21.9 °F - 10.0 °F 60% 30.07 in 10.0 mi Calm Calm - N/A   Clear
4:53 AM 19.9 °F - 10.9 °F 68% 30.08 in 10.0 mi Calm Calm - N/A   Clear
5:53 AM 19.9 °F - 10.9 °F 68% 30.09 in 10.0 mi Calm Calm - N/A   Clear
6:53 AM 21.0 °F 16.2 °F 10.9 °F 65% 30.09 in 10.0 mi WSW 3.5 mph - N/A   Clear
7:53 AM 28.0 °F 20.8 °F 14.0 °F 56% 30.11 in 10.0 mi WNW 6.9 mph - N/A   Clear
8:53 AM 32.0 °F 24.8 °F 12.0 °F 44% 30.12 in 10.0 mi NNW 8.1 mph - N/A   Clear
9:53 AM 37.0 °F 32.4 °F 12.9 °F 37% 30.12 in 10.0 mi WNW 5.8 mph - N/A   Clear
10:53 AM 37.9 °F 33.5 °F 12.9 °F 36% 30.11 in 10.0 mi Variable 5.8 mph - N/A   Clear
11:53 AM 42.1 °F 36.6 °F 14.0 °F 32% 30.09 in 10.0 mi WNW 9.2 mph 16.1 mph N/A   Clear
12:53 PM 45.0 °F 41.8 °F 14.0 °F 29% 30.06 in 10.0 mi Variable 5.8 mph - N/A   Clear
1:53 PM 46.9 °F - 12.9 °F 25% 30.04 in 10.0 mi West 6.9 mph - N/A   Clear
2:53 PM 48.0 °F - 12.9 °F 24% 30.04 in 10.0 mi WNW 8.1 mph - N/A   Clear
3:53 PM 48.9 °F - 12.0 °F 23% 30.03 in 10.0 mi West 9.2 mph - N/A   Clear
4:53 PM 48.0 °F - 12.0 °F 24% 30.03 in 10.0 mi WNW 6.9 mph - N/A   Clear
5:53 PM 43.0 °F 39.5 °F 12.9 °F 30% 30.03 in 10.0 mi WNW 5.8 mph - N/A   Clear
6:53 PM 41.0 °F 39.0 °F 12.9 °F 32% 30.04 in 10.0 mi WNW 3.5 mph - N/A   Clear
7:53 PM 39.9 °F 36.7 °F 15.1 °F 36% 30.05 in 10.0 mi North 4.6 mph - N/A   Clear
8:53 PM 39.0 °F - 14.0 °F 36% 30.06 in 10.0 mi Calm Calm - N/A   Clear
9:53 PM 30.9 °F - 19.9 °F 64% 30.08 in 10.0 mi Calm Calm - N/A   Clear
10:53 PM 37.0 °F 34.5 °F 15.1 °F 41% 30.07 in 10.0 mi NE 3.5 mph - N/A   Clear
11:53 PM 33.1 °F 30.0 °F 14.0 °F 46% 30.09 in 10.0 mi NE 3.5 mph - N/A   Clear